When you browse on this site, cookies collect data to enhance your experience and personalize the content and advertising you see.
Visit our Privacy Policy to learn more. By continuing to use the site, you agree to this use of cookies and data.
  • In Austria
  • List of Countries
  • For 7 days
  • Water Temperature
  • Satellite Maps
  • Weather Map
  • News
  • Weather Widgets
  • user-avatar
    Login

    Hourly Weather Smolan

    Today, 10 December, Monday

    Time Temperature Precipitation Wind Pressure Humidity
    00:00 0°C° 0 mm 1 mps 647 mmHg 85%
    01:00 0°C° 0 mm 1 mps 647 mmHg 84%
    02:00 -1°C° 0 mm 1 mps 647 mmHg 83%
    03:00 -1°C° 0 mm 1 mps 646 mmHg 81%
    04:00 -1°C° 0 mm 1 mps 646 mmHg 79%
    05:00 -1°C° 0 mm 1 mps 646 mmHg 77%
    06:00 -1°C° 0 mm 1 mps 646 mmHg 77%
    07:00 -1°C° 0 mm 1 mps 646 mmHg 76%
    08:00 -1°C° 0 mm 1 mps 646 mmHg 76%
    09:00 -2°C° 0.1 mm 2 mps 646 mmHg 74%
    10:00 -1°C° 0.1 mm 2 mps 647 mmHg 72%
    11:00 +1°C° 0.1 mm 2 mps 647 mmHg 70%
    12:00 0°C° 0.2 mm 3 mps 647 mmHg 69%
    13:00 0°C° 0.2 mm 3 mps 647 mmHg 68%
    14:00 -1°C° 0.2 mm 4 mps 646 mmHg 68%
    15:00 -1°C° 0.2 mm 3 mps 646 mmHg 69%
    16:00 -1°C° 0.2 mm 3 mps 646 mmHg 71%
    17:00 -2°C° 0.2 mm 3 mps 646 mmHg 73%
    18:00 -2°C° 0.1 mm 3 mps 647 mmHg 75%
    19:00 -2°C° 0.1 mm 3 mps 647 mmHg 76%
    20:00 -2°C° 0.1 mm 3 mps 647 mmHg 78%
    21:00 -2°C° 0 mm 3 mps 647 mmHg 79%
    22:00 -4°C° 0 mm 3 mps 648 mmHg 79%
    23:00 -4°C° 0 mm 3 mps 648 mmHg 79%

    Tomorrow, 11 December, Tuesday

    Time Temperature Precipitation Wind Pressure Humidity
    00:00 -4°C° 0 mm 3 mps 648 mmHg 78%
    01:00 -5°C° 0 mm 3 mps 648 mmHg 78%
    02:00 -4°C° 0 mm 2 mps 649 mmHg 77%
    03:00 -4°C° 0 mm 2 mps 648 mmHg 77%
    04:00 -5°C° 0 mm 2 mps 648 mmHg 77%
    05:00 -5°C° 0 mm 2 mps 648 mmHg 77%
    06:00 -6°C° 0 mm 2 mps 648 mmHg 75%
    07:00 -6°C° 0 mm 2 mps 649 mmHg 74%
    08:00 -6°C° 0 mm 2 mps 649 mmHg 72%
    09:00 -4°C° 0 mm 2 mps 650 mmHg 64%
    10:00 -3°C° 0 mm 2 mps 651 mmHg 55%
    11:00 -1°C° 0 mm 2 mps 652 mmHg 47%
    12:00 -1°C° 0 mm 2 mps 652 mmHg 46%
    13:00 +1°C° 0 mm 2 mps 652 mmHg 45%
    14:00 +1°C° 0 mm 2 mps 652 mmHg 45%
    15:00 -1°C° 0.1 mm 2 mps 651 mmHg 52%
    16:00 -3°C° 0.1 mm 2 mps 651 mmHg 58%
    17:00 -4°C° 0.1 mm 2 mps 651 mmHg 65%
    18:00 -5°C° 0 mm 2 mps 651 mmHg 68%
    19:00 -5°C° 0 mm 2 mps 652 mmHg 71%
    20:00 -6°C° 0 mm 2 mps 652 mmHg 73%
    21:00 -6°C° 0 mm 2 mps 652 mmHg 72%
    22:00 -4°C° 0 mm 1 mps 652 mmHg 71%
    23:00 -4°C° 0 mm 1 mps 652 mmHg 71%

    Day after tomorrow, 12 December, Wednesday

    Time Temperature Precipitation Wind Pressure Humidity
    00:00 -4°C° 0 mm 1 mps 652 mmHg 70%
    01:00 -4°C° 0 mm 1 mps 652 mmHg 69%
    02:00 -4°C° 0 mm 1 mps 652 mmHg 68%
    03:00 -4°C° 0 mm 1 mps 652 mmHg 67%
    04:00 -4°C° 0 mm 1 mps 652 mmHg 67%
    05:00 -4°C° 0 mm 1 mps 652 mmHg 66%
    06:00 -6°C° 0 mm 1 mps 652 mmHg 66%
    07:00 -6°C° 0 mm 1 mps 653 mmHg 65%
    08:00 -6°C° 0 mm 1 mps 653 mmHg 65%
    09:00 -3°C° 0 mm 1 mps 654 mmHg 58%
    10:00 -1°C° 0 mm 1 mps 654 mmHg 51%
    11:00 0°C° 0 mm 1 mps 655 mmHg 44%
    12:00 +1°C° 0 mm 1 mps 655 mmHg 43%
    13:00 -1°C° 0 mm 2 mps 655 mmHg 42%
    14:00 -1°C° 0 mm 2 mps 655 mmHg 41%
    15:00 0°C° 0 mm 1 mps 654 mmHg 47%
    16:00 -1°C° 0 mm 1 mps 654 mmHg 54%
    17:00 -3°C° 0 mm 1 mps 654 mmHg 61%
    18:00 -3°C° 0 mm 1 mps 654 mmHg 63%
    19:00 -4°C° 0 mm 1 mps 654 mmHg 65%
    20:00 -4°C° 0 mm 1 mps 654 mmHg 67%
    21:00 -4°C° 0 mm 1 mps 654 mmHg 66%
    22:00 -4°C° 0 mm 1 mps 654 mmHg 65%
    23:00 -4°C° 0 mm 1 mps 654 mmHg 64%

    13 December, Thursday

    Time Temperature Precipitation Wind Pressure Humidity
    00:00 -4°C° 0 mm 1 mps 654 mmHg 61%
    01:00 -4°C° 0 mm 1 mps 654 mmHg 59%
    02:00 -4°C° 0 mm 1 mps 654 mmHg 57%
    03:00 -4°C° 0 mm 1 mps 654 mmHg 55%
    04:00 -4°C° 0 mm 1 mps 654 mmHg 53%
    05:00 -4°C° 0 mm 1 mps 654 mmHg 51%
    06:00 -4°C° 0 mm 1 mps 654 mmHg 50%
    07:00 -4°C° 0 mm 1 mps 654 mmHg 49%
    08:00 -4°C° 0 mm 1 mps 654 mmHg 47%
    09:00 -2°C° 0 mm 1 mps 655 mmHg 43%
    10:00 -1°C° 0 mm 1 mps 655 mmHg 38%
    11:00 +1°C° 0 mm 1 mps 656 mmHg 34%
    12:00 +2°C° 0 mm 1 mps 655 mmHg 34%
    13:00 +1°C° 0 mm 2 mps 655 mmHg 34%
    14:00 +1°C° 0 mm 2 mps 655 mmHg 35%
    15:00 -1°C° 0 mm 2 mps 654 mmHg 41%
    16:00 0°C° 0 mm 1 mps 654 mmHg 47%
    17:00 -1°C° 0 mm 1 mps 653 mmHg 53%
    18:00 -2°C° 0 mm 1 mps 653 mmHg 55%
    19:00 -2°C° 0 mm 1 mps 653 mmHg 57%
    20:00 -2°C° 0 mm 1 mps 653 mmHg 58%
    21:00 -2°C° 0 mm 1 mps 653 mmHg 62%
    22:00 -2°C° 0 mm 1 mps 653 mmHg 65%
    23:00 -3°C° 0 mm 1 mps 653 mmHg 69%

    14 December, Friday

    Time Temperature Precipitation Wind Pressure Humidity
    00:00 -2°C° 0 mm 1 mps 653 mmHg 71%
    01:00 -2°C° 0 mm 1 mps 653 mmHg 74%
    02:00 -2°C° 0 mm 1 mps 653 mmHg 76%
    03:00 -2°C° 0 mm 1 mps 653 mmHg 79%
    04:00 -2°C° 0 mm 1 mps 652 mmHg 81%
    05:00 -2°C° 0 mm 1 mps 652 mmHg 83%
    06:00 -2°C° 0 mm 1 mps 652 mmHg 84%
    07:00 -2°C° 0 mm 1 mps 652 mmHg 85%
    08:00 -2°C° 0 mm 1 mps 652 mmHg 86%
    09:00 0°C° 0 mm 1 mps 653 mmHg 82%
    10:00 -1°C° 0 mm 2 mps 653 mmHg 78%
    11:00 +2°C° 0 mm 2 mps 654 mmHg 75%
    12:00 +2°C° 0 mm 2 mps 653 mmHg 76%
    13:00 +3°C° 0 mm 2 mps 653 mmHg 78%
    14:00 +3°C° 0 mm 2 mps 653 mmHg 79%
    15:00 +2°C° 0 mm 2 mps 652 mmHg 84%
    16:00 +1°C° 0 mm 2 mps 652 mmHg 88%
    17:00 +1°C° 0 mm 2 mps 651 mmHg 92%
    18:00 +1°C° 0.2 mm 2 mps 651 mmHg 93%
    19:00 +2°C° 0.2 mm 1 mps 651 mmHg 93%
    20:00 +2°C° 0.2 mm 1 mps 651 mmHg 94%
    21:00 +2°C° 0.3 mm 1 mps 650 mmHg 94%
    22:00 +3°C° 0.3 mm 1 mps 650 mmHg 95%
    23:00 +2°C° 0.3 mm 2 mps 650 mmHg 96%

    15 December, Saturday

    Time Temperature Precipitation Wind Pressure Humidity
    00:00 +2°C° 0.1 mm 2 mps 650 mmHg 96%
    01:00 +2°C° 0.1 mm 2 mps 649 mmHg 96%
    02:00 +2°C° 0.1 mm 2 mps 649 mmHg 96%
    03:00 +2°C° 0.2 mm 2 mps 649 mmHg 96%
    04:00 +2°C° 0.2 mm 2 mps 648 mmHg 96%
    05:00 +2°C° 0.2 mm 2 mps 648 mmHg 96%
    06:00 +2°C° 1.1 mm 2 mps 648 mmHg 96%
    07:00 +3°C° 1.1 mm 2 mps 648 mmHg 96%
    08:00 +3°C° 1.1 mm 2 mps 648 mmHg 97%
    09:00 +3°C° 2.2 mm 2 mps 648 mmHg 96%
    10:00 +3°C° 2.2 mm 2 mps 649 mmHg 96%
    11:00 +4°C° 2.2 mm 2 mps 649 mmHg 95%
    12:00 +4°C° 2.3 mm 2 mps 649 mmHg 94%
    13:00 +4°C° 2.3 mm 2 mps 649 mmHg 93%
    14:00 +5°C° 2.3 mm 1 mps 648 mmHg 92%
    15:00 +4°C° 0.8 mm 1 mps 649 mmHg 92%
    16:00 +4°C° 0.8 mm 1 mps 649 mmHg 92%
    17:00 +3°C° 0.8 mm 1 mps 649 mmHg 93%
    18:00 +3°C° 0.2 mm 1 mps 649 mmHg 92%
    19:00 +3°C° 0.2 mm 1 mps 650 mmHg 92%
    20:00 +1°C° 0.2 mm 2 mps 650 mmHg 92%
    21:00 +1°C° 0.1 mm 2 mps 650 mmHg 91%
    22:00 +1°C° 0.1 mm 2 mps 650 mmHg 90%
    23:00 +1°C° 0.1 mm 2 mps 651 mmHg 89%
    Show more